Simultaneous Nadir Overpasses (SNOs) Predictions

Prediction of SNOs between TERRA and METOP-C Satellite Orbit:

Table of predicted SNOs for the next 14.0 days since TLE Epoch: 12/28/2019
Index Date (TERRA) Time (TERRA) Lat,Lon (TERRA) SZA (TERRA ) Date (METOP-C) Time (METOP-C) Lat,Lon (METOP-C) SZA (METOP-C ) Distance(km) Time Diff (sec)
1 12/28/2019 18:06:27 -81.28, 135.26 72.91 12/28/2019 18:06:10 -81.28, 135.39 72.90 2.12 17
2 12/28/2019 18:55:53 81.29, -56.92 107.12 12/28/2019 18:56:50 81.28, -56.93 107.14 0.78 57
3 12/31/2019 13:40:42 -81.28,-158.31 73.12 12/31/2019 13:40:00 -81.27,-158.48 73.16 3.03 42
4 12/31/2019 14:30:08 81.29, 9.48 106.90 12/31/2019 14:30:39 81.28, 9.51 106.92 0.92 31
5 01/03/2020 09:14:56 -81.28, -91.92 73.40 01/03/2020 09:13:48 -81.27, -91.96 73.44 1.01 68
6 01/03/2020 10:04:22 81.29, 75.85 106.62 01/03/2020 10:04:27 81.28, 75.95 106.63 1.79 5
7 01/06/2020 05:38:37 81.28, 142.19 106.28 01/06/2020 05:38:17 81.27, 142.00 106.25 3.21 20
8 01/06/2020 06:28:04 -81.27, -50.25 73.74 01/06/2020 06:28:56 -81.28, -50.09 73.70 2.81 52
9 01/09/2020 01:12:52 81.27,-151.51 105.87 01/09/2020 01:12:06 81.27,-151.56 105.85 0.81 46




NCC Satellite Simultaneous Nadir Overpasses (SNOs) Prediction Service
